Flight Track Log - Related Links

Times and Time Zones

All times are in EST time to prevent confusion due to time zone crossing. See the FSR411 flight status page for this flight to view local times or setup timezone preferences in your user account.

Time Position Orientation Groundspeed Altitude Reporting Facility
EST Latitude Longitude Course Direction KTS MPH feet Rate Location/Type
Tue 03:51:30 PM 42.4308 -83.0286 333° Northwest 163 188 1,900  Level Cleveland Center
Tue 03:52:07 PM 42.4608 -83.0494 333° Northwest 201 231 3,000 1,370 Climbing Cleveland Center
Tue 03:53:02 PM 42.4764 -82.9808 73° East 267 307 4,000 1,017 Climbing Cleveland Center
Tue 03:53:06 PM 42.4736 -82.9753 124° Southeast 258 297 4,000 91 Level Cleveland Center
Tue 03:54:08 PM 42.4025 -82.9581 170° South 261 300 4,100 190 Climbing Cleveland Center
Tue 03:54:09 PM 42.4025 -82.9597 270° West 268 308 4,200 871 Climbing Cleveland Center
Tue 03:55:10 PM 42.3278 -82.9642 183° South 265 305 5,000 439 Climbing Cleveland Center
Tue 03:56:12 PM 42.2458 -82.9728 184° South 282 325 5,100 265 Climbing Cleveland Center
Tue 03:56:18 PM 42.2361 -82.9739 185° South 285 328 5,300 1,869 Climbing Cleveland Center
Tue 03:57:13 PM 42.1644 -82.9783 183° South 282 325 7,000 1,607 Climbing Cleveland Center
Tue 03:57:14 PM 42.1694 -82.9781 North 281 323 6,800 952 Descending Cleveland Center
Tue 03:58:16 PM 42.0886 -82.9931 188° South 298 343 8,000 629 Climbing Cleveland Center
Tue 03:59:18 PM 42.0172 -83.0497 211° Southwest 300 345 8,100 968 Climbing Cleveland Center
Tue 04:00:20 PM 41.9375 -83.1269 216° Southwest 308 354 10,000 919 Climbing Cleveland Center
Tue 04:01:22 PM 41.8967 -83.2344 243° Southwest 322 371 10,000 624 Level Cleveland Center
Tue 04:02:25 PM 41.9050 -83.3458 276° West 312 359 11,300 1,296 Climbing Cleveland Center
Tue 04:03:27 PM 41.9350 -83.4597 290° West 318 366 12,700 919 Climbing Cleveland Center
Tue 04:04:29 PM 41.9017 -83.5667 247° West 335 386 13,200 1,790 Climbing Cleveland Center
Tue 04:05:31 PM 41.8236 -83.6461 217° Southwest 351 404 16,400 3,194 Climbing Cleveland Center
Tue 04:06:33 PM 41.7381 -83.7336 217° Southwest 380 437 19,800 3,629 Climbing Cleveland Center
Tue 04:07:35 PM 41.6281 -83.8372 215° Southwest 402 463 23,900 3,242 Climbing Cleveland Center
Tue 04:08:37 PM 41.5275 -83.9125 209° Southwest 413 475 26,500 1,984 Climbing Cleveland Center
Tue 04:09:39 PM 41.4244 -83.9933 210° Southwest 427 491 28,000 811 Climbing Cleveland Center
Tue 04:10:28 PM 41.3456 -84.0553 211° Southwest 436 502 28,000  Level Chicago Center
Tue 04:11:30 PM 41.2539 -84.1553 219° Southwest 435 501 28,000  Level Chicago Center
Tue 04:12:32 PM 41.2000 -84.3231 247° West 415 478 28,000  Level Chicago Center
Tue 04:13:34 PM 41.1631 -84.4692 251° West 416 479 28,000  Level Chicago Center
Tue 04:14:36 PM 41.1261 -84.6150 251° West 418 481 28,000  Level Chicago Center
Tue 04:15:39 PM 41.0894 -84.7614 252° West 417 480 28,000  Level Chicago Center
Tue 04:16:41 PM 41.0514 -84.9092 251° West 421 484 28,000  Level Chicago Center
Tue 04:17:43 PM 41.0133 -85.0556 251° West 420 483 28,000  Level Chicago Center
Tue 04:18:45 PM 40.9750 -85.2028 251° West 421 484 28,000  Level Chicago Center
Tue 04:19:47 PM 40.9242 -85.3756 249° West 420 483 28,000  Level Chicago Center
Tue 04:20:49 PM 40.8828 -85.5203 249° West 420 483 28,000  Level Chicago Center
Tue 04:21:51 PM 40.8406 -85.6631 249° West 418 481 28,000  Level Chicago Center
Tue 04:22:53 PM 40.7986 -85.8056 249° West 417 480 28,000  Level Chicago Center
Tue 04:23:55 PM 40.7564 -85.9486 249° West 418 481 28,000  Level Chicago Center
Tue 04:24:57 PM 40.7153 -86.0908 249° West 416 479 28,000 -48 Level Chicago Center
Tue 04:26:00 PM 40.6717 -86.2358 248° West 415 478 27,900 -576 Descending Chicago Center
Tue 04:27:02 PM 40.6225 -86.4033 249° West 412 474 26,800 -1,403 Descending Chicago Center
Tue 04:28:04 PM 40.5803 -86.5411 248° West 411 473 25,000 -1,355 Descending Chicago Center
Tue 04:29:06 PM 40.5400 -86.6789 249° West 410 472 24,000 -726 Descending Chicago Center
Tue 04:30:08 PM 40.4989 -86.8117 248° West 400 460 23,500 -1,065 Descending Chicago Center
Tue 04:31:10 PM 40.4578 -86.9439 248° West 397 457 21,800 -1,935 Descending Chicago Center
Tue 04:32:12 PM 40.4108 -87.0994 248° West 389 448 19,500 -2,081 Descending Chicago Center
Tue 04:33:14 PM 40.3719 -87.2239 248° West 377 434 17,500 -1,887 Descending Chicago Center
Tue 04:34:16 PM 40.3333 -87.3472 248° West 371 427 15,600 -1,935 Descending Chicago Center
Tue 04:35:18 PM 40.2917 -87.4828 248° West 367 422 13,500 -1,839 Descending Chicago Center
Tue 04:36:20 PM 40.2547 -87.6011 248° West 356 410 11,800 -1,392 Descending Chicago Center
Tue 04:37:23 PM 40.2181 -87.7192 248° West 353 406 10,600 -1,296 Descending Chicago Center
Tue 04:38:25 PM 40.1939 -87.8344 255° West 285 328 9,100 -1,694 Descending Chicago Center
Tue 04:39:27 PM 40.1889 -87.9331 266° West 274 315 7,100 -1,984 Descending Chicago Center
Tue 04:40:29 PM 40.1825 -88.0300 265° West 268 308 5,000 -1,500 Descending Chicago Center
Tue 04:41:31 PM 40.1747 -88.1242 264° West 266 306 4,000 -968 Descending Chicago Center
Tue 04:43:00 PM 40.0756 -88.2363 252° West  Level Estimated
Tue 04:50:00 PM 40.0333 -88.2667 252° West  Level FlightAware Approximate
Tue 04:51:00 PM 40.0388 -88.2778 252° West  Level Estimated
Tue 04:52:00 PM 40.0388 -88.2778 252° West  Level Estimated
Tue 04:53:00 PM 40.0388 -88.2778 252° West  Level Estimated
Tue 04:54:00 PM 40.0388 -88.2778 252° West  Level Estimated

Login

Don't have an account? Register now (free) for customized features, flight alerts, and more!